Tracking 30703 objects as of 12-Jun-2025
HD Live streaming from Space Station
objects crossing your sky now

STARLINK-6148

Track STARLINK-6148 now!
10-day predictions
STARLINK-6148 is classified as:


NORAD ID: 57117
Int'l Code: 2023-090S
Perigee: 564.7 km
Apogee: 567.8 km
Inclination: 43.0 °
Period: 95.8 minutes
Semi major axis: 6937 km
RCS: Unknown
Launch date: June 23, 2023
Source: United States (US)
Launch site: AIR FORCE EASTERN TEST RANGE (AFETR)
Your satellite tracking list
Your tracking list is empty




NASA's NSSDC Master Catalog

Two Line Element Set (TLE):
1 57117U 23090S   25163.38317640 -.00000852  00000-0 -48027-4 0  9996
2 57117  43.0064 303.2990 0002219 284.7421  75.3175 15.02521093108610
Source of the keplerian elements: AFSPC